Osceola, WI

9:25 AM CDT on June 26, 2017 (GMT -0500)
Simenstad Municipal

Weather History for KOEO - September, 2013

Change the Weather History Date:

Monday, September 30, 2013

  Actual Average (KANE) Record (KANE)
Temperature  
Mean Temperature 66 °F -  
Max Temperature 77 °F 61 °F 84 °F (2002)
Min Temperature 56 °F 41 °F 33 °F (2003)
Cooling Degree Days 2    
Growing Degree Days 16 (Base 50)    
Moisture  
Dew Point 49 °F    
Average Humidity 54    
Maximum Humidity 70    
Minimum Humidity 39    
Precipitation  
Precipitation 0.00 in - - ()
Sea Level Pressure  
Sea Level Pressure 29.72 in    
Wind  
Wind Speed 11 mph (South)    
Max Wind Speed 22 mph    
Max Gust Speed 32 mph    
Visibility 10 miles    
Events      
Averages and records for this station are not official NWS values.
T = Trace of Precipitation, MM = Missing Value Source: NWS Daily Summary

Daily Weather History Graph

Daily Weather History Graph

Search for Another Location

Airport or City:

Trip Planner

Search our weather history database for the weather conditions in past years. The results will help you decide how hot, cold, wet, or windy it might be!

Date:

Astronomy

Sep. 30, 2013 Rise Set
Actual Time 7:07 AM CDT 6:52 PM CDT
Civil Twilight 6:38 AM CDT 7:21 PM CDT
Nautical Twilight 6:04 AM CDT 7:56 PM CDT
Astronomical Twilight 5:29 AM CDT 8:30 PM CDT
Moon 2:34 AM CDT (9/30) 4:32 PM CDT (9/30)
Length of Visible Light 12h 43m
Length of Day
11h 44m
Waning Crescent, 19% of the Moon is Illuminated
Sep 30
Waning Crescent
Oct 4
New
Oct 11
First Quarter
Oct 18
Full
Oct 26
Last Quarter

Hourly Weather History & Observations

Time (CDT) Temp. Dew Point Humidity Pressure Visibility Wind Dir Wind Speed Gust Speed Precip Events Conditions
12:15 AM 60.8 °F 45.5 °F 57% 29.84 in 10.0 mi South 10.4 mph 16.1 mph N/A   Clear
12:35 AM 60.3 °F 45.5 °F 58% 29.83 in 10.0 mi South 9.2 mph - N/A   Clear
12:55 AM 60.3 °F 45.5 °F 58% 29.83 in 10.0 mi South 10.4 mph - N/A   Clear
1:15 AM 59.7 °F 45.7 °F 60% 29.82 in 10.0 mi South 10.4 mph - N/A   Clear
1:35 AM 59.4 °F 45.9 °F 61% 29.82 in 10.0 mi South 8.1 mph - N/A   Clear
1:55 AM 59.2 °F 45.9 °F 61% 29.82 in 10.0 mi South 9.2 mph - N/A   Clear
2:15 AM 58.8 °F 45.9 °F 62% 29.82 in 10.0 mi SSE 8.1 mph - N/A   Clear
2:35 AM 59.0 °F 46.0 °F 62% 29.82 in 10.0 mi South 8.1 mph - N/A   Clear
2:55 AM 59.2 °F 46.0 °F 62% 29.81 in 10.0 mi South 9.2 mph - N/A   Clear
3:15 AM 59.5 °F 45.9 °F 61% 29.80 in 10.0 mi South 8.1 mph 17.3 mph N/A   Clear
3:35 AM 60.3 °F 45.7 °F 59% 29.79 in 10.0 mi South 11.5 mph 18.4 mph N/A   Clear
3:55 AM 60.8 °F 45.7 °F 57% 29.79 in 10.0 mi SSE 12.7 mph - N/A   Clear
4:15 AM 60.8 °F 45.7 °F 57% 29.78 in 10.0 mi South 12.7 mph 19.6 mph N/A   Clear
4:35 AM 61.2 °F 45.7 °F 57% 29.78 in 10.0 mi South 12.7 mph 20.7 mph N/A   Clear
4:55 AM 60.8 °F 45.7 °F 57% 29.76 in 10.0 mi South 15.0 mph 19.6 mph N/A   Clear
5:15 AM 60.1 °F 45.9 °F 59% 29.76 in 10.0 mi SSE 11.5 mph 18.4 mph N/A   Clear
5:35 AM 58.8 °F 46.2 °F 63% 29.76 in 10.0 mi South 12.7 mph - N/A   Clear
5:55 AM 58.5 °F 46.4 °F 64% 29.76 in 10.0 mi South 10.4 mph - N/A   Clear
6:15 AM 58.1 °F 46.4 °F 65% 29.76 in 10.0 mi SSE 10.4 mph - N/A   Clear
6:35 AM 57.6 °F 46.4 °F 66% 29.75 in 10.0 mi SSE 10.4 mph - N/A   Clear
6:55 AM 57.4 °F 46.6 °F 67% 29.75 in 10.0 mi SSE 8.1 mph - N/A   Clear
7:15 AM 56.7 °F 46.8 °F 69% 29.75 in 10.0 mi SSE 5.8 mph - N/A   Clear
7:35 AM 56.8 °F 47.3 °F 70% 29.75 in 10.0 mi SSE 6.9 mph - N/A   Clear
7:55 AM 59.0 °F 48.0 °F 67% 29.75 in 10.0 mi SSE 9.2 mph - N/A   Clear
8:15 AM 58.8 °F 48.0 °F 67% 29.74 in 10.0 mi SSE 9.2 mph - N/A   Clear
8:35 AM 59.2 °F 48.4 °F 67% 29.74 in 10.0 mi South 9.2 mph - N/A   Clear
8:55 AM 59.9 °F 48.4 °F 66% 29.74 in 10.0 mi South 9.2 mph - N/A   Clear
9:15 AM 60.8 °F 48.7 °F 64% 29.74 in 10.0 mi South 11.5 mph 16.1 mph N/A   Clear
9:35 AM 62.2 °F 49.3 °F 63% 29.73 in 10.0 mi South 11.5 mph - N/A   Clear
9:55 AM 63.3 °F 49.3 °F 60% 29.73 in 10.0 mi South 13.8 mph 23.0 mph N/A   Clear
10:15 AM 64.4 °F 49.1 °F 58% 29.72 in 10.0 mi South 12.7 mph 21.9 mph N/A   Clear
10:35 AM 65.3 °F 49.1 °F 56% 29.72 in 10.0 mi South 17.3 mph 23.0 mph N/A   Clear
10:55 AM 66.2 °F 49.5 °F 55% 29.71 in 10.0 mi South 18.4 mph 24.2 mph N/A   Clear
11:15 AM 67.6 °F 49.8 °F 53% 29.71 in 10.0 mi South 16.1 mph 23.0 mph N/A   Clear
11:35 AM 69.4 °F 49.5 °F 49% 29.71 in 10.0 mi South 17.3 mph 23.0 mph N/A   Clear
11:55 AM 70.3 °F 48.9 °F 47% 29.70 in 10.0 mi South 16.1 mph 25.3 mph N/A   Clear
12:15 PM 71.8 °F 49.5 °F 45% 29.71 in 10.0 mi SSW 16.1 mph 32.2 mph N/A   Clear
12:35 PM 72.3 °F 49.8 °F 45% 29.71 in 10.0 mi South 16.1 mph 24.2 mph N/A   Clear
12:55 PM 71.6 °F 49.6 °F 46% 29.70 in 10.0 mi SSW 19.6 mph 25.3 mph N/A   Clear
1:15 PM 72.7 °F 49.6 °F 44% 29.70 in 10.0 mi South 16.1 mph 25.3 mph N/A   Clear
1:35 PM 73.6 °F 50.2 °F 44% 29.69 in 10.0 mi SSW 15.0 mph - N/A   Clear
1:55 PM 74.1 °F 50.2 °F 43% 29.68 in 10.0 mi South 18.4 mph 24.2 mph N/A   Clear
2:15 PM 74.5 °F 49.8 °F 42% 29.68 in 10.0 mi South 21.9 mph 27.6 mph N/A   Clear
2:35 PM 75.4 °F 50.0 °F 41% 29.67 in 10.0 mi South 19.6 mph 26.5 mph N/A   Clear
2:55 PM 75.6 °F 49.6 °F 40% 29.67 in 10.0 mi South 18.4 mph 28.8 mph N/A   Clear
3:15 PM 76.1 °F 50.5 °F 41% 29.66 in 10.0 mi South 19.6 mph 25.3 mph N/A   Clear
3:35 PM 76.8 °F 50.9 °F 40% 29.66 in 10.0 mi South 17.3 mph 26.5 mph N/A   Clear
3:55 PM 77.0 °F 50.7 °F 40% 29.67 in 10.0 mi SSW 19.6 mph 25.3 mph N/A   Clear
4:15 PM 77.2 °F 51.1 °F 40% 29.66 in 10.0 mi South 17.3 mph 26.5 mph N/A   Clear
4:35 PM 77.2 °F 50.9 °F 40% 29.66 in 10.0 mi SSW 16.1 mph 21.9 mph N/A   Clear
4:55 PM 77.4 °F 50.9 °F 39% 29.66 in 10.0 mi South 15.0 mph 18.4 mph N/A   Clear
5:15 PM 77.0 °F 51.4 °F 41% 29.65 in 10.0 mi South 12.7 mph 18.4 mph N/A   Clear
5:35 PM 76.3 °F 50.9 °F 41% 29.65 in 10.0 mi South 15.0 mph 19.6 mph N/A   Clear
5:55 PM 75.4 °F 51.4 °F 43% 29.65 in 10.0 mi South 11.5 mph - N/A   Clear
6:15 PM 73.9 °F 51.8 °F 46% 29.65 in 10.0 mi SSE 9.2 mph - N/A   Clear
6:35 PM 72.1 °F 51.8 °F 49% 29.66 in 10.0 mi SSE 8.1 mph - N/A   Clear
6:55 PM 70.7 °F 51.3 °F 50% 29.66 in 10.0 mi SSE 10.4 mph - N/A   Clear
7:15 PM 69.8 °F 51.1 °F 51% 29.66 in 10.0 mi SSE 8.1 mph - N/A   Clear
7:35 PM 68.9 °F 51.1 °F 53% 29.66 in 10.0 mi SSE 8.1 mph - N/A   Clear
7:55 PM 67.6 °F 51.1 °F 55% 29.67 in 10.0 mi SSE 9.2 mph - N/A   Clear
8:15 PM 68.0 °F 50.2 °F 53% 29.67 in 10.0 mi SSE 10.4 mph - N/A   Clear
8:35 PM 67.3 °F 49.6 °F 53% 29.67 in 10.0 mi SSE 8.1 mph - N/A   Clear
8:55 PM 66.9 °F 49.3 °F 53% 29.67 in 10.0 mi SSE 10.4 mph - N/A   Clear
9:15 PM 66.2 °F 49.1 °F 54% 29.67 in 10.0 mi SSE 9.2 mph - N/A   Clear
9:35 PM 65.5 °F 49.1 °F 55% 29.67 in 10.0 mi SSE 9.2 mph - N/A   Clear
9:55 PM 65.3 °F 48.4 °F 54% 29.68 in 10.0 mi South 6.9 mph - N/A   Clear
10:15 PM 65.5 °F 48.0 °F 53% 29.68 in 10.0 mi South 8.1 mph - N/A   Clear
10:35 PM 66.4 °F 47.7 °F 51% 29.67 in 10.0 mi South 8.1 mph - N/A   Clear
10:55 PM 66.6 °F 47.7 °F 51% 29.67 in 10.0 mi South 9.2 mph - N/A   Clear
11:15 PM 66.0 °F 48.2 °F 53% 29.67 in 10.0 mi South 8.1 mph - N/A   Clear
11:35 PM 66.2 °F 48.4 °F 53% 29.67 in 10.0 mi South 8.1 mph - N/A   Clear
11:55 PM 66.2 °F 48.7 °F 53% 29.67 in 10.0 mi South 10.4 mph - N/A   Clear